User: anonymous   Login
Location: Roanoke
(37.2710°N, 79.9420°W)
Time: 21:34:27
(UTC-05:00)
Language:

S-56A Canister/Altair - Orbit

View from above orbital plane
View from above orbital plane
View from above satellite
View from above satellite

Ground track
Ground track

The orbit data is extracted from the following two-line orbital elements,

1    82U 61004B   19324.77501259 -.00000021 +00000-0 +21637-4 0  9993
2    82 038.8554 254.7697 1173682 151.6290 215.3717 12.26056189782077
Epoch (UTC): 20 November 2019 18:36:01
Eccentricity: 0.1173682
inclination: 38.8554°
perigee height: 634 km
apogee height: 2498 km
right ascension of ascending node: 254.7697°
argument of perigee: 151.6290°
revolutions per day: 12.26056189
mean anomaly at epoch: 215.3717°
orbit number at epoch: 78207

The dashed part of the orbit path shows where the satellite is in the earth's shadow,  

DLR